Location: Baili�vre
(50.0696°N, 4.2409°E)
Time: 21:40:55
(UTC+00:00)

Lacrosse 4 Rocket - Pass Details

Date: 08 August 2020
Orbit: 544 x 615 km, 68.0° (Epoch: 22 September)

Event Time Altitude Azimuth Distance (km) Brightness Sun altitude
Exits shadow 22:45:20 19° 78° (ENE) 1,416 3.3 -22.7°
Drops below altitude 10° 22:47:04 10° 58° (ENE) 1,882 4.2 -22.8°
Sets 22:49:35 0° 44° (NE) 2,771 5.3 -22.9°
